This is the latest recevied weather packets stored in our database for station/object W4TJP. If no packets are shown the sender has not sent any weather packets the latest 10 day(s).
| Time | Temp. | Humidity | Pressure | Rain* | Wind** | Luminosity | Snow |
|---|---|---|---|---|---|---|---|
| 1777742529 | 15.56° C | 51% | 1015.8 hPa | 0 mm | - | 734 W/m² | - |
| 1777742225 | 16.11° C | 42% | 1015.9 hPa | 0 mm | - | 112 W/m² | - |
| 1777741922 | 16.11° C | 41% | 1015.7 hPa | 0 mm | - | 178 W/m² | - |
| 1777741619 | 16.11° C | 41% | 1016 hPa | 0 mm | - | 696 W/m² | - |
| 1777741316 | 16.67° C | 40% | 1015.8 hPa | 0 mm | - | 678 W/m² | - |
| 1777741012 | 16.11° C | 41% | 1015.9 hPa | 0 mm | - | 751 W/m² | - |
| 1777740709 | 15.56° C | 41% | 1015.9 hPa | 0 mm | - | 717 W/m² | - |
| 1777740405 | 16.11° C | 37% | 1016 hPa | 0 mm | - | 714 W/m² | - |
| 1777740102 | 16.11° C | 37% | 1016.1 hPa | 0 mm | - | 730 W/m² | - |
| 1777739798 | 16.11° C | 41% | 1016.1 hPa | 0 mm | - | 733 W/m² | - |
| 1777739495 | 16.11° C | 43% | 1016.1 hPa | 0 mm | - | 411 W/m² | - |
| 1777739192 | 15.56° C | 40% | 1016.1 hPa | 0 mm | - | 730 W/m² | - |
| 1777738889 | 16.11° C | 43% | 1016.2 hPa | 0 mm | - | 477 W/m² | - |
| 1777738586 | 15.56° C | 40% | 1016.2 hPa | 0 mm | - | 770 W/m² | - |
| 1777738283 | 15.56° C | 40% | 1016.1 hPa | 0 mm | - | 796 W/m² | - |
| 1777737981 | 15.56° C | 40% | 1016.2 hPa | 0 mm | - | 709 W/m² | - |
| 1777737680 | 15.56° C | 43% | 1016.2 hPa | 0 mm | - | 730 W/m² | - |
| 1777737378 | 15° C | 47% | 1016 hPa | 0 mm | - | 530 W/m² | - |
| 1777737074 | 14.44° C | 49% | 1016.1 hPa | 0 mm | - | 413 W/m² | - |
| 1777736771 | 14.44° C | 46% | 1016.1 hPa | 0 mm | - | 645 W/m² | - |
| 1777736142 | 15.56° C | 45% | 1016.1 hPa | 0 mm | - | 653 W/m² | - |
| 1777735839 | 15.56° C | 46% | 1015.9 hPa | 0 mm | - | 596 W/m² | - |
| 1777735537 | 15.56° C | 45% | 1016.3 hPa | 0 mm | - | 466 W/m² | - |
| 1777735234 | 15° C | 47% | 1016.1 hPa | 0 mm | - | 662 W/m² | - |
| 1777734931 | 14.44° C | 49% | 1016 hPa | 0 mm | - | 667 W/m² | - |
* Rain latest hour (hover to see other rain measurements)
** Current wind speed in m/s (hover to see current wind gust speed)